Voltar ao catálogo

FENGYUN 1C DEB

AtivoPO
NORAD 29738·DEBRIS·🇨🇳 China

Lançado May 10, 1999 de Taiyuan Satellite Launch Center

Loading…

Próximas Passagens (próximas 24 horas)

TLE

AtualizadoSource: Space-Track

Época: Sep 14, 2026, 06:25 UTC

1 29738U 99025AC  26257.26797158 -.00000222  00000-0 -25870-3 0  9994
2 29738  99.4190  19.5057 0849816  55.5134 312.3282 12.62476774896920

Acompanhe FENGYUN 1C DEB em tempo real com AllMySat

Download on the App Store